Location: Broletto
(44.6000°N, 10.5833°E)
Time: 01:43:19
(UTC+00:00)

COSMOS 2455 - Pass Details

Date: 18 April 2021
Orbit: 902 x 907 km, 67.1° (Epoch: 08 May)

Event Time Altitude Azimuth Distance (km) Brightness Sun altitude
Exits shadow 21:18:15 61° 66° (ENE) 1,024 3.0 -28.1°
Drops below altitude 10° 21:23:20 10° 35° (NE) 2,598 5.5 -28.6°
Sets 21:25:52 0° 34° (NNE) 3,543 6.2 -28.8°
